Home > Weather > Provo > Past weeks

Flag for U.S.A. Weather for the Past 2 Weeks in Provo, Utah, U.S.A.

Now
19 °F

Ice fog.


Feels Like: 19 °F
Forecast: 20 / 40 °F
Wind: No wind

Location: Provo Municipal

Current Time: Feb 10, 2016 at 11:52:11 AM

Latest Report: Feb 10, 2016 at 10:54 AM


Visibility: 0 mi

Pressure: 30.49 "Hg (25.52 "Hg at 1386m altitude)

Humidity: 93%

Dew point: 18 °F

Location of ProvoLocation

Historic Weather in Provo — Graph

°F

Provo Temperature Yesterday

Maximum temperature yesterday: 34 °F (at 6:47 AM)
Minimum temperature yesterday: 9 °F (at 8:15 AM)
Average temperature yesterday: 18 °F

High & Low Weather Summary for the Past Weeks

 TemperatureHumidityPressure
High43 °F (Jan 30, 4:35 AM)100% (Jan 30, 10:15 PM)30.74 "Hg (Jan 30, 10:15 PM)
Low3 °F (Feb 6, 5:15 AM)55% (Feb 1, 2:51 PM)29.48 "Hg (Feb 1, 4:15 AM)
Average20 °F83%30.30 "Hg
* Reported Jan 26 12:15 AM — Feb 10 12:15 AM, Provo, Weather by CustomWeather, © 2016

Note: Actual official high and low records may vary slightly from our data, if they occured in-between our weather recording intervals... More about our weather records

Advertising

Provo Weather History for the Previous 24 Hours

 ConditionsComfort  
Time TempWeatherWind HumidityBarometerVisibility
12:15 AM
Wed, Feb 10
18 °FClear.No wind93%30.48 "Hg2 mi
11:55 PM
Tue, Feb 9
18 °FClear.No wind93%30.48 "Hg2 mi
11:35 PM16 °FClear.No wind86%30.48 "Hg2 mi
11:15 PM18 °FIce fog.No wind86%30.49 "Hg0 mi
10:55 PM16 °FIce fog.No wind93%30.48 "Hg0 mi
10:35 PM16 °FIce fog.No wind93%30.48 "Hg0 mi
9:55 PM18 °FIce fog.No wind86%30.48 "Hg0 mi
9:35 PM21 °FClear.No wind86%30.48 "Hg1 mi
9:15 PM21 °FClear.No wind93%30.48 "Hg3 mi
8:47 PM23 °FClear.No wind86%30.49 "Hg5 mi
7:47 PM23 °FClear.No wind86%30.51 "Hg5 mi
6:47 PM27 °FClear.No wind74%30.51 "Hg5 mi
5:47 PM28 °FSunny.No wind74%30.51 "Hg7 mi
4:49 PM30 °FSunny.3 mph69%30.52 "Hg7 mi
3:53 PM28 °FSunny.3 mph74%30.52 "Hg4 mi
2:47 PM27 °FSunny.3 mph80%30.52 "Hg4 mi
1:47 PM27 °FSunny.3 mph80%30.54 "Hg4 mi
12:55 PM23 °FSunny.3 mph86%30.57 "Hg3 mi
12:35 PM23 °FSunny.No wind86%30.58 "Hg4 mi
12:15 PM21 °FSunny.No wind86%30.58 "Hg4 mi
11:55 AM19 °FSunny.3 mph93%30.59 "Hg3 mi
11:35 AM19 °FSunny.5 mph93%30.60 "Hg3 mi
11:15 AM19 °FSunny.5 mph86%30.61 "Hg3 mi
Weather by CustomWeather, © 2016

See weather overviewHow to use our weather pages